Location: Unspecified
(43.8044°N, 11.0278°E)
Time: 07:24:51
(UTC+01:00)

Okean 3 - Visible Passes

Search period start: 23 March 2017 00:00
Search period end: 02 April 2017 01:00
Orbit: 577 x 603 km, 82.5° (Epoch: 21 March)

Date Brightness Start Highest point End Pass type
(mag) Time Alt. Az. Time Alt. Az. Time Alt. Az.
23 Mar 5.1 03:46:02 27° NNW 03:46:02 27° NNW 03:48:07 10° N visible
24 Mar 6.6 02:17:53 12° NE 02:17:53 12° NE 02:18:27 10° NE visible
24 Mar 5.3 03:54:27 22° NNW 03:54:27 22° NNW 03:56:15 10° N visible
25 Mar 6.4 02:26:16 15° NE 02:26:16 15° NE 02:27:12 10° NNE visible
25 Mar 5.5 04:02:50 17° NNW 04:02:50 17° NNW 04:04:14 10° NNW visible
26 Mar 6.1 03:34:38 17° NNE 03:34:38 17° NNE 03:35:46 10° NNE visible
26 Mar 5.7 05:11:12 13° NW 05:11:12 13° NW 05:11:59 10° NNW visible
27 Mar 6.0 03:42:59 19° NNE 03:42:59 19° NNE 03:44:12 10° NNE visible
28 Mar 5.9 03:51:19 19° N 03:51:19 19° N 03:52:31 10° N visible
29 Mar 5.8 03:59:37 18° N 03:59:37 18° N 04:00:45 10° N visible
30 Mar 5.9 04:07:55 16° NNW 04:07:55 16° NNW 04:08:52 10° N visible
31 Mar 6.7 02:39:39 11° NNE 02:39:39 11° NNE 02:39:46 10° NNE visible
31 Mar 6.0 04:16:12 13° NNW 04:16:12 13° NNW 04:16:51 10° NNW visible
01 Apr 6.6 02:47:56 12° NNE 02:47:56 12° NNE 02:48:21 10° NNE visible
01 Apr 6.1 04:24:29 11° NNW 04:24:29 11° NNW 04:24:38 10° NNW visible
